Location: Unspecified
(0.0000°N, 0.0000°E)
Time: 12:40:29
(UTC+00:00)

PCSat - Pass Details

Date: 14 December 2017
Orbit: 786 x 794 km, 67.1° (Epoch: 20 January)

Event Time Altitude Azimuth Distance (km) Brightness Sun altitude
Rises 18:31:32 0° 235° (SW) 3,273 14.8 -8.4°
Reaches altitude 10° 18:35:11 10° 260° (W) 2,343 13.5 -9.2°
Maximum altitude 18:37:49 14° 290° (WNW) 2,089 12.5 -9.8°
Drops below altitude 10° 18:40:27 10° 320° (NW) 2,340 12.2 -10.4°
Sets 18:44:07 0° 345° (NNW) 3,266 12.7 -11.3°
